Location: Asbacherhof
(48.8543°N, 10.7903°E)
Time: 21:32:31
(UTC+00:00)

ATLAS CENTAUR R/B - Pass Details

Date: 26 May 2022
Orbit: 443 x 688 km, 64.6° (Epoch: 07 June)

Event Time Altitude Azimuth Distance (km) Brightness Sun altitude
Rises 00:08:24 0° 308° (NW) 3,049 5.4 -19.0°
Reaches altitude 10° 00:11:36 10° 287° (WNW) 2,104 4.3 -18.9°
Enters shadow 00:14:00 15° 257° (WSW) 1,741 3.6 -18.8°
